GFSNW_sfc_30mbdewp_336.txt.gz
Dewpoint
38 38 38 39 41 44 41 34 25 49 50 38 37 35 33 36 34 33 22 21 19 14 13 12 11 12 11 11 11 18 21 20 20 20 20 19 21 21 21 28 22 24 20 19
38 38 38 38 41 43 36 30 26 48 45 30 29 28 27 31 32 34 32 25 23 21 18 14 14 13 20 13 12 20 19 21 22 18 19 19 16 19 32 32 26 24 24 20
39 38 38 38 39 42 38 30 31 35 40 34 31 25 25 25 29 30 32 31 28 23 20 21 18 15 23 20 16 24 26 20 19 21 20 26 20 15 34 28 26 26 22 20
40 38 38 38 38 42 38 30 31 31 34 35 32 32 28 25 25 28 33 34 29 23 21 22 19 20 26 24 24 23 22 21 21 21 19 18 17 18 23 29 24 18 17 12
41 39 39 38 37 41 34 34 27 34 31 32 31 30 28 30 31 25 26 36 35 30 25 26 27 27 20 22 23 22 22 23 23 22 19 13 9 6 16 25 23 19 18 17
42 41 39 38 38 40 30 28 29 29 29 27 26 26 25 26 28 32 32 29 33 34 32 31 32 32 31 27 23 24 23 25 23 22 20 14 17 17 17 19 20 21 19 21
43 42 41 39 38 39 32 35 35 32 27 23 21 20 25 28 23 29 32 38 36 33 36 33 29 28 26 25 24 27 23 24 28 25 22 22 24 23 23 21 21 23 21 24
43 42 41 41 40 39 33 33 37 33 28 24 24 24 31 31 33 30 29 35 43 42 37 32 31 30 25 27 22 24 26 26 31 27 23 23 21 21 21 21 21 23 24 25
43 42 42 41 41 39 34 29 34 38 31 24 23 23 28 29 32 32 32 44 44 39 34 35 30 30 26 23 20 22 23 27 29 28 23 19 20 22 23 22 20 24 24 27
43 43 42 42 41 39 35 27 34 37 33 29 27 30 33 37 36 36 38 41 41 39 37 34 30 29 28 20 19 23 22 25 30 30 26 23 21 19 18 17 23 22 23 28
42 43 42 42 41 40 37 27 31 37 33 30 30 31 29 33 35 34 37 39 41 39 35 35 34 30 30 29 25 23 24 24 29 29 28 26 25 19 18 28 27 25 25 28
42 42 42 42 41 41 39 29 27 32 36 36 37 36 34 32 32 34 37 35 35 40 38 37 35 33 31 28 28 26 24 25 29 29 31 30 28 26 26 30 26 26 32 35
41 41 41 41 41 40 38 30 28 32 34 32 30 29 30 31 33 39 34 37 39 39 38 40 37 34 32 31 30 28 24 26 28 29 26 27 27 26 29 28 28 31 35 32
41 41 41 41 41 40 39 32 30 29 34 31 25 27 27 30 31 32 38 36 37 38 39 36 40 37 36 32 31 29 27 27 26 27 28 29 30 28 27 28 30 32 31 30
40 40 40 39 39 39 38 33 31 29 33 30 32 32 30 30 30 29 32 38 36 37 36 37 37 37 36 34 33 31 28 27 27 29 30 32 30 29 27 30 31 31 30 29
39 39 38 38 39 39 34 31 30 30 35 34 24 24 25 25 26 28 31 34 37 38 36 37 39 39 38 35 32 32 32 32 31 30 29 32 32 30 27 31 31 30 29 28
39 39 38 38 39 36 32 27 36 37 33 34 26 20 21 23 25 29 34 37 39 38 37 36 37 38 38 37 35 33 32 32 30 30 34 33 31 29 29 31 30 30 28 27
37 38 38 38 38 37 32 31 35 40 35 32 27 21 18 23 26 26 36 37 38 39 38 39 37 37 39 36 34 35 34 30 28 35 33 33 33 32 32 30 29 28 26 25
37 37 37 36 36 33 29 36 37 38 36 29 26 19 19 25 30 30 35 36 34 38 38 38 39 36 34 37 37 33 33 33 32 34 32 33 33 32 31 30 28 27 25 24
37 36 34 29 34 37 37 36 32 32 35 35 27 23 19 28 36 33 35 38 33 32 35 40 37 35 36 36 36 35 34 33 33 35 33 34 34 32 31 29 28 27 25 24
34 32 29 34 38 34 33 29 27 30 28 29 22 21 18 19 26 32 37 35 36 31 32 35 33 30 32 37 37 38 38 34 33 35 35 35 35 33 31 28 28 26 25 25
32 33 37 37 34 31 27 25 29 26 18 16 18 19 21 18 29 35 33 32 34 29 36 33 26 26 29 32 35 36 37 38 37 35 35 35 35 33 30 28 27 26 25 25
32 33 31 29 30 25 22 19 17 18 16 13 12 20 27 21 23 35 33 29 29 36 32 30 29 29 30 30 35 37 38 38 38 35 35 35 34 32 30 28 27 26 26 25
30 27 24 23 22 20 13 10 11 12 12 12 15 28 33 26 24 27 31 30 33 29 28 29 32 35 35 34 33 36 37 38 38 36 35 34 32 31 30 28 28 26 24 24
28 27 22 19 20 17 13 13 13 10 11 12 23 28 31 31 29 30 29 29 27 28 24 35 37 38 37 38 39 37 39 39 38 36 34 32 32 30 29 28 26 26 25 25
29 28 23 20 16 19 18 26 28 27 23 25 27 27 27 29 31 29 29 21 24 32 35 37 35 34 36 37 39 41 41 40 36 35 34 32 30 29 28 28 27 26 25 25
26 24 24 21 19 19 21 21 23 27 26 27 27 27 24 29 30 27 29 26 29 38 35 34 35 34 34 36 36 38 37 35 33 32 31 30 29 28 26 25 26 25 25 24

GFSNW_sfc_30mbdewp_339.txt.gz
Dewpoint
39 38 38 38 39 43 40 39 31 50 51 43 41 36 36 35 35 37 36 23 23 22 22 18 12 12 17 14 14 21 24 25 19 18 22 22 25 22 25 21 22 28 23 20
39 38 38 38 39 42 39 36 32 49 48 34 30 33 30 29 31 33 35 35 27 30 26 22 19 21 20 12 16 21 24 22 19 19 20 20 17 20 30 32 28 22 21 21
40 39 38 38 38 40 41 36 29 33 43 39 35 33 28 27 28 29 31 33 34 34 31 27 22 23 21 18 23 22 27 25 22 20 22 23 17 17 29 26 25 26 26 26
41 40 39 39 38 39 40 35 29 34 30 31 36 35 33 29 26 29 29 29 32 34 31 25 22 26 25 23 23 23 23 22 22 22 26 24 21 18 27 24 25 23 25 25
42 41 40 39 38 39 37 33 32 32 31 30 29 33 30 30 30 31 28 28 31 37 34 31 31 32 32 25 24 23 25 22 21 21 24 21 15 20 24 24 25 24 22 17
43 42 41 40 39 39 33 33 36 32 29 28 27 29 30 27 27 29 31 34 35 35 37 32 32 32 33 33 30 22 24 23 24 21 24 22 18 15 15 24 27 23 21 23
43 43 42 41 40 39 37 35 36 33 27 26 24 24 25 30 32 27 29 38 39 41 41 39 37 34 32 31 28 27 23 25 27 23 26 19 22 23 21 20 24 25 25 27
44 43 43 42 40 39 37 34 35 35 27 27 24 24 27 32 35 36 35 37 40 42 39 36 33 31 28 27 27 28 26 28 29 22 23 25 25 25 24 21 21 24 30 32
44 43 43 42 41 40 38 32 34 34 32 26 29 28 32 33 35 36 36 43 44 40 39 33 31 30 28 23 22 24 27 31 26 30 22 19 23 23 25 24 21 26 30 31
44 44 43 43 42 40 38 31 35 33 33 30 30 28 31 34 35 34 38 37 41 41 36 33 30 29 31 25 21 20 23 25 27 26 24 26 26 21 21 19 20 30 30 31
44 44 43 43 42 41 39 33 33 33 33 32 31 32 33 33 35 32 35 35 40 39 34 33 33 31 30 29 28 24 22 22 25 31 27 24 29 19 19 25 28 31 31 31
44 43 43 43 43 42 40 34 33 33 32 33 36 35 36 37 35 33 37 35 35 38 37 37 36 34 32 31 26 29 23 26 27 27 29 33 32 23 31 28 26 34 33 34
43 43 43 42 42 41 40 35 34 32 30 30 31 28 31 34 34 36 33 36 38 37 37 35 38 34 35 28 30 29 29 29 27 28 31 29 30 30 31 29 34 36 35 33
43 43 42 42 42 41 40 37 35 33 30 28 28 30 33 33 33 34 38 35 39 39 38 34 35 37 38 35 34 32 30 31 30 30 31 31 30 30 30 35 37 35 34 33
42 42 42 42 41 40 40 39 36 35 30 28 29 29 27 29 32 32 32 37 36 36 35 33 34 39 38 38 35 33 34 32 31 28 31 33 31 29 32 34 34 33 32 31
41 41 40 40 40 40 37 32 35 35 34 31 25 30 27 28 29 33 32 33 37 36 35 34 37 37 37 35 35 33 34 34 34 33 32 33 32 29 33 33 33 32 31 30
40 40 40 40 40 38 33 30 36 39 35 30 27 24 24 22 24 30 32 33 36 36 35 34 34 34 38 36 32 34 35 36 36 36 35 32 33 29 33 33 32 32 30 28
40 39 39 39 39 37 34 34 37 38 33 30 25 24 22 27 25 24 33 34 36 36 35 36 34 35 36 32 34 34 34 34 34 34 36 34 33 34 32 32 30 29 27 27
38 37 38 36 35 33 33 35 35 38 33 27 28 22 18 28 27 29 32 35 33 36 34 32 34 33 33 35 35 34 36 35 35 36 36 35 32 32 31 30 29 27 26 25
38 36 32 30 33 37 34 31 28 30 32 31 25 27 20 30 29 33 30 33 32 28 32 37 34 30 34 34 37 37 37 38 37 34 33 35 32 31 30 29 28 27 26 25
34 31 29 33 37 31 30 27 25 26 24 28 27 25 24 25 24 28 33 33 33 28 31 32 31 28 28 32 37 36 35 35 37 37 36 35 34 33 31 29 29 27 26 25
33 33 36 35 32 28 24 22 24 26 20 24 26 24 23 23 27 25 33 31 33 27 36 32 26 23 26 30 33 36 37 37 38 39 38 36 36 34 32 30 28 27 27 24
34 31 29 24 23 22 19 18 17 18 23 21 22 21 23 25 22 27 32 28 30 35 31 28 29 31 35 37 37 35 37 38 37 36 38 37 36 34 32 30 28 28 26 25
27 24 21 22 20 22 22 17 16 19 20 20 20 23 27 31 23 23 27 31 32 28 26 26 34 35 36 37 37 39 39 37 37 38 38 37 35 32 31 29 29 27 26 26
26 26 19 24 23 24 23 22 18 17 18 20 24 30 30 29 29 25 25 26 25 26 25 33 35 35 35 35 37 38 38 38 38 39 37 35 33 30 30 29 28 27 26 25
28 28 23 25 24 21 22 24 25 30 28 26 25 24 28 26 29 28 24 25 23 27 34 36 36 35 35 35 35 35 36 36 40 38 34 33 31 30 29 28 27 27 25 24
26 24 27 27 26 23 21 25 31 33 25 21 23 19 19 28 27 28 29 27 28 32 35 34 34 35 35 34 34 34 36 39 36 34 32 31 29 28 27 26 26 25 24 23

GFSNW_sfc_30mbdewp_345.txt.gz
Dewpoint
42 41 40 39 39 41 37 37 13 44 49 32 37 26 36 35 30 32 30 36 35 25 32 29 22 16 13 18 21 21 23 22 17 17 22 23 22 22 27 21 20 25 21 17
43 41 39 39 39 41 36 33 34 41 45 30 31 32 30 31 31 25 25 34 32 33 31 31 30 24 23 22 20 17 25 22 17 18 20 21 21 23 27 28 28 24 20 20
43 41 39 39 39 39 37 34 26 31 42 39 35 33 31 25 31 21 27 26 24 26 32 33 31 30 26 25 24 29 26 23 18 15 18 21 18 20 27 25 21 21 22 22
43 42 40 39 39 39 37 34 29 33 29 33 30 34 34 31 30 32 31 27 26 25 27 32 31 31 29 23 25 24 24 19 23 22 22 21 19 18 25 24 24 21 21 23
44 42 41 40 38 38 31 31 29 31 28 30 29 30 31 30 30 29 30 28 30 33 34 32 32 31 31 31 30 24 26 16 21 21 27 24 20 20 22 25 26 27 25 26
44 43 42 40 38 34 32 34 35 31 28 27 25 27 25 28 32 31 33 34 35 34 36 37 37 35 34 33 33 29 24 24 21 16 22 23 22 24 23 24 25 22 18 19
44 44 43 41 39 34 32 33 35 29 23 27 26 26 28 27 29 31 33 36 35 39 43 40 40 39 38 36 35 34 27 23 24 16 24 16 20 26 23 23 23 24 23 24
44 44 44 42 41 38 30 33 33 32 26 28 25 27 29 32 33 33 35 39 41 38 40 35 34 33 33 32 32 32 32 27 21 15 19 20 21 25 24 20 19 24 24 28
45 44 44 43 41 40 33 30 34 33 26 23 30 27 31 31 30 30 35 38 36 41 38 35 31 28 28 27 27 30 31 29 22 24 12 11 19 22 27 24 20 26 28 30
45 45 44 43 42 41 32 30 34 32 29 31 30 29 30 32 31 31 34 32 33 40 35 33 32 30 31 27 24 25 29 28 23 24 18 23 25 26 26 19 20 28 31 32
45 45 45 44 42 41 35 31 33 30 30 30 31 30 29 30 33 30 32 29 35 34 33 33 33 31 31 30 27 24 25 26 25 25 22 21 28 24 22 25 28 32 33 33
45 45 44 44 43 42 36 29 34 36 29 26 33 33 32 30 29 31 33 33 34 34 31 32 33 31 33 33 28 30 25 25 25 26 24 30 30 25 23 28 28 33 33 34
45 45 44 44 43 42 37 32 34 32 28 26 26 23 24 33 32 33 28 33 36 36 36 31 31 30 37 30 33 31 30 32 28 27 27 29 32 32 29 29 29 33 35 34
44 44 44 44 44 43 38 34 35 32 30 26 24 30 29 33 33 34 34 32 37 37 37 32 29 28 35 34 36 36 34 33 29 29 29 31 31 32 32 33 35 34 35 33
44 44 44 44 43 42 39 38 36 34 28 24 25 28 26 26 27 27 31 33 33 34 33 31 28 33 34 35 36 35 36 35 31 30 35 35 34 35 35 33 33 34 33 32
44 44 44 43 42 40 35 27 32 38 35 28 22 25 26 26 27 28 29 32 34 34 33 32 34 36 31 30 30 36 37 36 34 34 35 35 35 36 37 35 35 34 33 32
44 43 43 42 41 34 27 24 33 38 35 30 24 20 25 29 26 23 24 33 35 34 33 33 32 33 34 30 29 32 32 32 33 30 36 32 34 33 35 36 35 35 33 32
43 42 42 42 39 35 32 34 39 36 30 30 23 20 22 27 24 20 31 29 34 33 34 34 32 31 31 27 27 27 25 26 29 31 36 36 36 35 35 35 34 32 31 30
41 40 39 36 32 29 29 35 37 36 32 27 26 21 14 30 28 30 31 32 26 31 30 30 30 28 27 29 30 31 33 30 28 34 36 36 33 34 35 34 32 31 30 28
38 31 25 25 30 34 35 33 28 31 31 31 24 26 23 22 25 24 29 30 25 26 30 32 29 26 26 25 30 35 35 35 35 35 36 37 37 36 35 33 32 31 29 28
29 26 25 30 37 32 30 25 24 23 23 26 26 22 18 20 14 15 30 27 29 24 26 28 27 26 27 28 28 27 27 33 35 37 36 36 35 34 35 33 33 32 30 28
29 31 34 34 29 25 21 20 22 20 17 21 23 23 22 18 24 23 30 24 28 23 30 28 23 28 34 36 33 30 29 28 28 31 33 34 34 35 35 35 32 31 29 27
34 29 28 24 24 18 16 13 17 19 23 24 25 23 21 22 26 23 26 23 21 29 28 25 28 34 36 36 36 37 37 37 38 38 38 37 37 37 36 34 32 30 28 26
22 21 19 17 16 18 17 16 15 20 24 25 25 23 23 25 23 20 18 20 29 20 23 25 30 32 34 35 36 36 35 35 34 35 35 36 38 38 37 33 30 28 27 25
21 19 13 18 19 20 24 23 23 24 26 27 27 25 27 26 22 22 21 20 22 22 23 25 30 33 32 33 34 35 34 34 34 34 34 34 35 37 36 32 30 28 27 25
25 25 22 23 23 22 23 23 23 27 28 30 28 25 23 23 24 22 21 21 19 16 18 25 29 31 30 31 34 35 35 34 33 32 32 32 34 35 34 31 29 28 27 26
23 21 26 25 24 22 23 25 27 32 27 21 25 24 22 27 24 22 25 21 15 18 23 26 27 28 28 30 35 35 35 33 32 30 30 31 33 31 30 28 28 27 27 25

GFSNW_sfc_30mbdewp_351.txt.gz
Dewpoint
45 44 42 40 39 39 35 35 12 40 44 25 29 13 23 36 31 27 30 34 36 30 32 29 24 15 17 25 27 23 27 26 20 18 22 24 27 27 27 22 21 24 21 18
46 43 42 39 39 39 33 28 33 40 42 19 25 33 31 31 28 27 23 30 31 28 31 29 31 30 28 25 22 23 26 23 18 17 21 23 21 26 29 28 29 23 21 19
46 43 41 39 38 39 36 31 24 36 40 36 28 30 28 24 31 27 25 21 25 18 26 34 32 32 32 31 29 30 27 24 19 15 16 21 20 23 28 26 23 23 23 21
45 44 41 39 38 37 35 32 27 33 31 34 35 33 33 30 22 31 32 30 32 29 18 28 29 32 33 31 34 28 27 21 22 21 19 21 18 19 26 23 22 19 20 22
45 44 42 40 39 36 32 31 30 30 30 30 31 31 31 30 30 30 30 30 31 34 32 34 33 34 32 31 34 31 29 21 25 21 22 22 19 21 25 25 25 23 24 22
45 43 42 41 38 31 32 34 35 30 29 28 29 29 27 28 30 34 33 33 32 32 39 38 38 39 38 38 36 34 30 30 24 19 23 26 23 23 22 25 27 25 23 23
45 43 42 41 38 30 33 33 34 26 25 26 26 27 28 27 29 28 32 36 34 38 38 40 39 40 39 39 38 37 34 32 27 20 24 17 22 26 24 23 25 27 24 24
44 43 42 41 39 31 27 34 33 28 25 27 26 26 28 30 31 30 32 37 38 37 40 32 30 32 33 33 36 36 36 32 29 20 21 21 18 23 23 23 19 27 25 26
44 43 42 41 39 33 26 32 35 30 23 24 29 26 30 25 26 24 30 35 34 39 37 34 25 23 29 25 28 35 36 34 31 25 18 14 18 20 27 25 19 23 27 27
44 43 43 42 40 35 26 29 35 30 22 28 30 26 28 31 31 27 31 30 33 37 33 28 26 25 32 27 26 29 32 31 28 28 27 25 23 24 26 20 19 25 27 30
44 43 43 42 40 34 27 31 33 29 25 27 32 31 29 30 31 24 29 28 32 32 30 30 29 28 29 32 31 27 27 28 29 29 27 26 27 26 24 26 28 28 31 33
44 44 43 43 41 35 31 28 35 34 23 21 32 33 33 30 31 31 31 31 31 33 31 30 29 29 32 29 26 32 28 30 29 29 29 31 32 30 31 29 30 30 32 34
44 44 44 43 41 37 31 31 34 30 25 22 24 21 25 32 33 30 24 28 32 33 35 31 30 27 31 26 29 32 31 36 33 31 31 34 35 36 36 35 35 33 35 36
44 44 44 43 41 37 33 31 33 29 29 20 20 29 28 32 32 31 28 29 37 38 37 31 28 26 31 28 31 28 30 27 32 32 34 32 34 33 35 36 37 36 36 36
44 44 44 43 40 37 35 35 34 32 24 19 22 27 28 29 31 31 32 30 29 32 29 29 26 30 28 29 30 24 23 23 30 31 35 36 37 37 36 36 35 36 36 35
44 44 44 42 39 37 32 29 33 36 32 24 17 25 27 27 29 30 31 32 32 31 29 25 27 32 29 23 22 22 25 31 36 31 36 36 35 34 34 35 35 37 37 36
44 44 43 41 38 31 27 25 30 37 33 25 19 18 22 26 28 28 28 30 30 31 30 29 29 31 30 26 21 20 22 24 26 34 38 36 36 32 33 33 35 37 36 35
44 43 41 39 38 37 33 37 38 34 30 28 20 19 20 28 27 22 29 29 30 32 29 31 28 30 28 23 21 22 23 25 26 26 25 25 27 26 32 36 39 36 34 33
43 40 37 35 32 32 33 38 38 36 28 22 24 18 10 26 26 30 31 31 25 29 28 26 28 23 24 25 26 26 24 24 23 24 27 32 33 35 36 38 41 39 36 34
37 35 29 28 30 36 37 30 27 28 30 28 22 24 19 23 21 22 24 30 26 24 25 30 27 22 22 22 23 25 28 29 28 28 26 28 31 32 37 36 38 40 39 35
27 25 26 31 36 30 26 23 20 22 21 25 23 24 20 23 18 16 22 23 27 22 24 26 25 22 25 30 31 31 35 36 35 36 32 27 27 27 33 33 34 35 37 36
28 31 35 34 27 23 18 18 22 19 16 21 21 22 24 22 23 17 22 22 25 19 30 26 22 28 33 33 33 34 36 37 35 35 35 33 31 32 33 34 35 35 36 36
31 28 26 22 22 14 13 12 15 17 19 20 22 22 22 22 23 21 24 22 21 25 23 21 25 30 32 32 33 33 34 34 36 34 34 34 33 34 34 35 36 38 36 33
20 19 16 16 17 16 15 13 15 18 22 22 23 23 22 23 20 19 18 18 24 19 18 19 18 27 30 31 31 32 32 32 35 34 33 32 31 31 32 33 34 36 35 32
17 16 11 15 17 21 20 19 18 19 24 26 26 24 24 24 22 23 17 17 18 20 17 13 17 23 29 30 30 30 31 34 35 35 33 31 30 30 30 31 33 35 35 32
21 19 17 22 17 18 23 21 19 23 27 30 28 25 23 20 20 20 18 10 13 17 19 19 23 23 26 28 29 29 30 34 34 33 32 31 30 29 30 30 31 33 33 32
20 19 24 22 19 16 20 23 22 27 27 23 26 22 19 24 21 20 23 19 18 22 21 22 23 22 22 26 27 28 29 30 32 33 32 31 30 29 29 30 30 31 31 31